Regional Weather Roundup
Issued by NWS

Home | Current Version | Previous Version | Graphics & Text | Print | Product List | Glossary On
Versions: 1 2 3 4 5 6 7 8 9 10 11 12 13 14 15 16 17 18 19 20 21 22 23 24 25 26 27 28 29 30 31 32 33 34 35 36 37 38 39 40 41 42 43 44 45 46 47 48 49 50
000
ASUS43 KLMK 292202
RWRKY
KENTUCKY REGIONAL WEATHER ROUNDUP
NATIONAL WEATHER SERVICE LOUISVILLE KY
600 PM EDT FRI APR 29 2016

NOTE "FAIR" INDICATES FEW OR NO CLOUDS BELOW 12,000 FEET
WITH NO SIGNIFICANT WEATHER AND/OR OBSTRUCTIONS TO VISIBILITY.

KYZ001>023-026-027-061>063-070>075-292300-
WESTERN AND SOUTH CENTRAL KENTUCKY

CITY           SKY/WX    TMP DP  RH WIND       PRES   REMARKS
PADUCAH        TSTM      62  57  83 E9        29.94F
HENDERSON      CLOUDY    66  52  59 S6        30.00F
OWENSBORO      CLOUDY    69  54  58 VRB5      30.02F
HOPKINSVILLE   LGT RAIN  64  61  88 MISG      30.02F
BOWLING GREEN  CLOUDY    72  57  59 NE6       30.00F
GLASGOW        NOT AVBL
$$

KYZ024-025-028>034-038-045-046-053-292300-
NORTH CENTRAL KENTUCKY

CITY           SKY/WX    TMP DP  RH WIND       PRES   REMARKS
LOUISVILLE/SDF CLOUDY    70  49  47 W6        30.01S
LOUISVILLE/LOU CLOUDY    70  48  45 N6        30.02R
FORT KNOX      NOT AVBL
$$

KYZ035>037-039>044-047>052-055>060-089>105-292300-
NORTHEAST KENTUCKY

CITY           SKY/WX    TMP DP  RH WIND       PRES   REMARKS
LEXINGTON      PTSUNNY   68  50  52 W7        30.03R
COVINGTON      CLOUDY    66  47  50 NW6       30.02S
FRANKFORT      PTSUNNY   68  48  48 W6        30.02R
$$

KYZ054-064>069-076>088-106>120-292300-
SOUTHEAST KENTUCKY

CITY           SKY/WX    TMP DP  RH WIND       PRES   REMARKS
JACKSON        MOSUNNY   74  50  42 MISG      30.00R
LONDON         CLOUDY    76  49  38 NW8       30.00S
SOMERSET       NOT AVBL
MIDDLESBORO    CLOUDY    78  50  37 NW5       30.00S
MONTICELLO     CLOUDY    74  55  51 W7        30.03R
$$





USA.gov is the U.S. government's official web portal to all federal, state and local government web resources and services.